Weather History for Prague, Czech Republic

Change the Weather History Date:

Wednesday, November 2, 2011

  Actual Average Record
Temperature  
Mean Temperature 42 °F -  
Max Temperature 44 °F 42 °F 59 °F (1999)
Min Temperature 41 °F 32 °F 26 °F (1997)
Degree Days  
Heating Degree Days 22    
Moisture  
Dew Point 40 °F    
Average Humidity 91    
Maximum Humidity 100    
Minimum Humidity 87    
Precipitation  
Precipitation 0.00 in 0.04 in - ()
Sea Level Pressure  
Sea Level Pressure 30.09 in    
Wind  
Wind Speed 4 mph ()    
Max Wind Speed 7 mph    
Max Gust Speed -    
Visibility 4.4 miles    
Events Rain    
Averages and records for this station are not official NWS values.
T = Trace of Precipitation, MM = Missing Value Source: Averaged Metar Reports

Daily Weather History Graph

Daily Weather History Graph

Search for Another Location

Airport:

Trip Planner

Search our weather history database for the weather conditions in past years. The results will help you decide how hot, cold, wet, or windy it might be!

Date:

Astronomy

Nov. 02, 2011 Rise Set
Actual Time 6:53 AM CET 4:38 PM CET
Civil Twilight 6:19 AM CET 5:12 PM CET
Nautical Twilight 5:41 AM CET 5:50 PM CET
Astronomical Twilight 5:03 AM CET 6:28 PM CET
Moon 1:05 PM CET (11/2) 11:08 PM CET (11/2)
Length of Visible Light 10h 53m
Length of Day
9h 44m
Waxing Crescent, 48% of the Moon is Illuminated
Nov 2
Waxing Crescent
Nov 2
First Quarter
Nov 10
Full
Nov 18
Last Quarter
Nov 25
New

Hourly Weather History & Observations

Time (CET) Temp. Windchill Dew Point Humidity Pressure Visibility Wind Dir Wind Speed Gust Speed Precip Events Conditions
12:00 AM 44.6 °F 41.4 °F 41.0 °F 87% 30.12 in 3.7 mi SSW 5.8 mph - N/A   Overcast
12:30 AM 44.6 °F 43.1 °F 41.0 °F 87% 30.12 in 3.7 mi SSW 3.5 mph - N/A   Overcast
1:00 AM 44 °F - 41 °F 87% 30.16 in 3 mi South 4.5 mph - -   Mist
1:00 AM 42.8 °F 40.1 °F 41.0 °F 93% 30.12 in 3.1 mi South 4.6 mph - N/A   Overcast
1:30 AM 42.8 °F 41.1 °F 41.0 °F 93% 30.12 in 3.1 mi South 3.5 mph - N/A   Overcast
2:00 AM 42.8 °F 41.1 °F 41.0 °F 93% 30.12 in 3.1 mi SE 3.5 mph - N/A   Overcast
2:30 AM 42.8 °F 41.1 °F 41.0 °F 93% 30.12 in 3.1 mi South 3.5 mph - N/A   Overcast
3:00 AM 42.8 °F 41.1 °F 41.0 °F 93% 30.12 in 3.1 mi SSE 3.5 mph - N/A   Overcast
3:30 AM 42.8 °F 40.1 °F 41.0 °F 93% 30.09 in 3.1 mi South 4.6 mph - N/A   Overcast
4:00 AM 42.8 °F 41.1 °F 41.0 °F 93% 30.12 in 3.1 mi WSW 3.5 mph - N/A   Overcast
4:30 AM 42.8 °F 41.1 °F 41.0 °F 93% 30.12 in 3.1 mi South 3.5 mph - N/A   Overcast
5:00 AM 42.8 °F - 41.0 °F 93% 30.12 in 3.1 mi Variable 2.3 mph - N/A   Overcast
5:30 AM 42.8 °F - 41.0 °F 93% 30.12 in 2.8 mi Variable 2.3 mph - N/A   Overcast
6:00 AM 42.8 °F 40.1 °F 41.0 °F 93% 30.12 in 2.8 mi SE 4.6 mph - N/A   Overcast
6:30 AM 42.8 °F 41.1 °F 41.0 °F 93% 30.09 in 2.8 mi South 3.5 mph - N/A   Overcast
7:00 AM 42 °F - 41 °F 93% 30.16 in 2 mi South 2.2 mph - - Rain Light Drizzle
7:00 AM 42.8 °F 41.1 °F 41.0 °F 93% 30.12 in 2.5 mi SE 3.5 mph - N/A   Light Drizzle
7:30 AM 41.0 °F 37.1 °F 41.0 °F 100% 30.12 in 3.1 mi SE 5.8 mph - N/A   Light Drizzle
8:00 AM 41.0 °F 38.0 °F 39.2 °F 93% 30.12 in 3.1 mi SSE 4.6 mph - N/A   Overcast
8:30 AM 41.0 °F 38.0 °F 41.0 °F 100% 30.12 in 3.1 mi South 4.6 mph - N/A   Overcast
9:00 AM 41.0 °F 38.0 °F 39.2 °F 93% 30.12 in 3.7 mi South 4.6 mph - N/A   Overcast
9:30 AM 41.0 °F 38.0 °F 39.2 °F 93% 30.12 in 3.7 mi SSE 4.6 mph - N/A   Overcast
10:00 AM 41.0 °F 37.1 °F 39.2 °F 93% 30.12 in 4.3 mi SSE 5.8 mph - N/A   Overcast
11:00 AM 42.8 °F 41.1 °F 39.2 °F 87% 30.12 in 3.7 mi South 3.5 mph - N/A   Overcast
12:00 PM 42.8 °F 41.1 °F 41.0 °F 93% 30.09 in 3.7 mi SSE 3.5 mph - N/A   Overcast
12:30 PM 41.0 °F 38.0 °F 39.2 °F 93% 30.09 in 4.3 mi South 4.6 mph - N/A   Overcast
1:00 PM 42 °F - 40 °F 88% 30.14 in 5 mi South 4.5 mph - -   Mist
1:00 PM 42.8 °F 40.1 °F 39.2 °F 87% 30.09 in 5.6 mi South 4.6 mph - N/A   Overcast
1:30 PM 42.8 °F 40.1 °F 39.2 °F 87% 30.09 in 5.6 mi South 4.6 mph - N/A   Overcast
2:00 PM 42.8 °F 39.3 °F 39.2 °F 87% 30.09 in 5.0 mi ESE 5.8 mph - N/A   Overcast
2:30 PM 42.8 °F 40.1 °F 41.0 °F 93% 30.09 in 3.7 mi ESE 4.6 mph - N/A   Overcast
3:00 PM 42.8 °F 40.1 °F 41.0 °F 93% 30.09 in 3.7 mi SE 4.6 mph - N/A   Overcast
3:30 PM 42.8 °F 39.3 °F 39.2 °F 87% 30.06 in 4.3 mi SSE 5.8 mph - N/A   Overcast
4:00 PM 42.8 °F 40.1 °F 39.2 °F 87% 30.06 in 5.0 mi SE 4.6 mph - N/A   Overcast
4:30 PM 41.0 °F 36.4 °F 39.2 °F 93% 30.06 in 5.0 mi SE 6.9 mph - N/A   Overcast
5:00 PM 42.8 °F 38.6 °F 39.2 °F 87% 30.06 in 6.2 mi SE 6.9 mph - N/A   Overcast
5:30 PM 42.8 °F 38.6 °F 39.2 °F 87% 30.06 in 6.2 mi SE 6.9 mph - N/A   Overcast
6:00 PM 42.8 °F 39.3 °F 39.2 °F 87% 30.06 in 6.2 mi SE 5.8 mph - N/A   Overcast
6:30 PM 42.8 °F 38.6 °F 39.2 °F 87% 30.06 in 6.2 mi SSE 6.9 mph - N/A   Overcast
7:00 PM 42 °F - 40 °F 88% 30.10 in 7 mi South 4.5 mph - -   Overcast
7:00 PM 42.8 °F 39.3 °F 39.2 °F 87% 30.06 in 6.2 mi SSE 5.8 mph - N/A   Overcast
7:30 PM 42.8 °F 40.1 °F 39.2 °F 87% 30.04 in 6.2 mi SSE 4.6 mph - N/A   Overcast
8:00 PM 42.8 °F 39.3 °F 41.0 °F 93% 30.04 in 6.2 mi South 5.8 mph - N/A   Overcast
8:30 PM 42.8 °F 38.6 °F 39.2 °F 87% 30.04 in 6.2 mi South 6.9 mph - N/A   Overcast
9:00 PM 42.8 °F 39.3 °F 39.2 °F 87% 30.04 in 6.2 mi South 5.8 mph - N/A   Overcast
9:30 PM 42.8 °F 40.1 °F 39.2 °F 87% 30.04 in 6.2 mi SSE 4.6 mph - N/A   Overcast
10:00 PM 42.8 °F 39.3 °F 39.2 °F 87% 30.04 in 6.2 mi South 5.8 mph - N/A   Overcast
10:30 PM 41.0 °F 37.1 °F 39.2 °F 93% 30.04 in 6.2 mi South 5.8 mph - N/A   Overcast
11:00 PM 42.8 °F 39.3 °F 39.2 °F 87% 30.01 in 6.2 mi South 5.8 mph - N/A   Overcast
11:30 PM 42.8 °F 38.6 °F 39.2 °F 87% 30.01 in 6.2 mi SE 6.9 mph - N/A   Overcast